Zurück zum Katalog

STARLINK-33794

AktivKommunikationVLEO
NORAD 63820·PAYLOAD·🇺🇸 United States

Gestartet May 4, 2025 von Cape Canaveral Space Force Station

Loading…

Nächste Überflüge (nächste 24 Stunden)

TLE

AktuellSource: CelesTrak SupGP

Epoche: Sep 14, 2026, 20:50 UTC

1 63820C 25092S   26257.86854167  .00005888  00000+0  21327-3 0  2577
2 63820  43.0027 184.3510 0001476 273.7719 132.8605 15.27574275    14

Verfolge STARLINK-33794 in Echtzeit mit AllMySat

Download on the App Store